Simultaneous Nadir Overpasses (SNOs) Predictions

Prediction of SNOs between METOP-A and TERRA Satellite Orbit:

Table of predicted SNOs for the next 14.0 days since TLE Epoch: 11/10/2012
Index Date (METOP-A) Time (METOP-A) METOP-A Lat,Lon Date (TERRA) Time (TERRA) TERRA Lat,Lon Distance(km) Time Diff (sec)
1 11/11/2012 01:55:13 -81.33, 19.07 11/11/2012 01:55:57 -81.34, 19.04 0.80 44
2 11/11/2012 02:45:53 81.34,-173.46 11/11/2012 02:45:24 81.33,-173.54 1.54 29
3 11/13/2012 21:29:31 -81.33, 85.20 11/13/2012 21:30:12 -81.33, 85.28 1.34 41
4 11/13/2012 22:20:10 81.34,-106.96 11/13/2012 22:19:38 81.34,-106.94 0.44 32
5 11/16/2012 17:03:48 -81.33, 151.71 11/16/2012 17:04:28 -81.33, 151.79 1.28 40
6 11/16/2012 17:54:27 81.34, -40.47 11/16/2012 17:53:54 81.34, -40.44 0.44 33
7 11/19/2012 12:38:04 -81.33,-141.78 11/19/2012 12:38:45 -81.33,-141.81 0.56 41
8 11/19/2012 13:28:43 81.34, 26.02 11/19/2012 13:28:11 81.34, 25.94 1.50 32
9 11/22/2012 08:12:19 -81.33, -75.67 11/22/2012 08:13:02 -81.32, -75.52 2.55 43




NCC Satellite Simultaneous Nadir Overpasses (SNOs) Prediction Service
